• In Österreich
  • Länderverzeichnis
  • Für 7 Tage
  • Wassertemperatur
  • Satellitenkarten
  • Wetterkarte
  • News
  • Widgets
  • user-avatar
    Anmelden

    Stündliche Wetter Sungurlu

    Heute, 16 Oktober, Dienstag

    Zeit Temperatur Niederschläge Wind Luftdruck Luftfeuchtigkeit
    00:00 +17°C° 0 mm 2 m/S 699 mmHg 69%
    01:00 +17°C° 0 mm 2 m/S 698 mmHg 72%
    02:00 +16°C° 0 mm 1 m/S 698 mmHg 75%
    03:00 +16°C° 0 mm 1 m/S 698 mmHg 76%
    04:00 +15°C° 0 mm 1 m/S 698 mmHg 78%
    05:00 +15°C° 0 mm 1 m/S 698 mmHg 80%
    06:00 +16°C° 0 mm 1 m/S 698 mmHg 74%
    07:00 +17°C° 0 mm 2 m/S 699 mmHg 69%
    08:00 +19°C° 0 mm 2 m/S 699 mmHg 64%
    09:00 +20°C° 0 mm 2 m/S 699 mmHg 56%
    10:00 +23°C° 0 mm 2 m/S 699 mmHg 49%
    11:00 +25°C° 0 mm 3 m/S 699 mmHg 42%
    12:00 +26°C° 0 mm 3 m/S 699 mmHg 39%
    13:00 +27°C° 0 mm 3 m/S 699 mmHg 36%
    14:00 +28°C° 0 mm 3 m/S 698 mmHg 33%
    15:00 +27°C° 0.1 mm 3 m/S 698 mmHg 37%
    16:00 +26°C° 0.1 mm 3 m/S 698 mmHg 41%
    17:00 +24°C° 0.1 mm 3 m/S 697 mmHg 44%
    18:00 +22°C° 0.3 mm 3 m/S 697 mmHg 49%
    19:00 +21°C° 0.3 mm 3 m/S 698 mmHg 54%
    20:00 +20°C° 0.3 mm 3 m/S 698 mmHg 59%
    21:00 +20°C° 0.1 mm 2 m/S 698 mmHg 65%
    22:00 +19°C° 0.1 mm 2 m/S 698 mmHg 70%
    23:00 +18°C° 0.1 mm 2 m/S 697 mmHg 75%

    Morgen, 17 Oktober, Mittwoch

    Zeit Temperatur Niederschläge Wind Luftdruck Luftfeuchtigkeit
    00:00 +17°C° 0.5 mm 2 m/S 697 mmHg 78%
    01:00 +17°C° 0.5 mm 2 m/S 697 mmHg 81%
    02:00 +16°C° 0.5 mm 2 m/S 697 mmHg 84%
    03:00 +16°C° 0.3 mm 2 m/S 697 mmHg 84%
    04:00 +16°C° 0.3 mm 2 m/S 697 mmHg 85%
    05:00 +15°C° 0.3 mm 2 m/S 696 mmHg 85%
    06:00 +16°C° 0.1 mm 2 m/S 697 mmHg 80%
    07:00 +17°C° 0.1 mm 2 m/S 697 mmHg 74%
    08:00 +18°C° 0.1 mm 2 m/S 697 mmHg 69%
    09:00 +19°C° 0 mm 2 m/S 697 mmHg 61%
    10:00 +21°C° 0 mm 2 m/S 697 mmHg 52%
    11:00 +24°C° 0 mm 2 m/S 697 mmHg 43%
    12:00 +25°C° 0 mm 2 m/S 697 mmHg 40%
    13:00 +26°C° 0 mm 2 m/S 697 mmHg 38%
    14:00 +26°C° 0 mm 2 m/S 696 mmHg 35%
    15:00 +25°C° 0.2 mm 2 m/S 696 mmHg 38%
    16:00 +24°C° 0.2 mm 2 m/S 696 mmHg 41%
    17:00 +23°C° 0.2 mm 2 m/S 696 mmHg 44%
    18:00 +23°C° 0.2 mm 2 m/S 696 mmHg 47%
    19:00 +21°C° 0.2 mm 2 m/S 696 mmHg 50%
    20:00 +20°C° 0.2 mm 2 m/S 696 mmHg 54%
    21:00 +19°C° 0.4 mm 2 m/S 696 mmHg 57%
    22:00 +19°C° 0.4 mm 2 m/S 696 mmHg 61%
    23:00 +18°C° 0.4 mm 2 m/S 696 mmHg 65%

    übermorgen, 18 Oktober, Donnerstag

    Zeit Temperatur Niederschläge Wind Luftdruck Luftfeuchtigkeit
    00:00 +18°C° 0.1 mm 2 m/S 696 mmHg 68%
    01:00 +18°C° 0.1 mm 1 m/S 696 mmHg 71%
    02:00 +18°C° 0.1 mm 1 m/S 696 mmHg 75%
    03:00 +16°C° 0 mm 1 m/S 696 mmHg 77%
    04:00 +16°C° 0 mm 1 m/S 696 mmHg 79%
    05:00 +15°C° 0 mm 1 m/S 695 mmHg 81%
    06:00 +16°C° 0 mm 1 m/S 696 mmHg 76%
    07:00 +19°C° 0 mm 1 m/S 696 mmHg 71%
    08:00 +20°C° 0 mm 1 m/S 697 mmHg 66%
    09:00 +21°C° 0 mm 1 m/S 697 mmHg 59%
    10:00 +23°C° 0 mm 1 m/S 697 mmHg 52%
    11:00 +24°C° 0 mm 1 m/S 697 mmHg 45%
    12:00 +25°C° 0 mm 1 m/S 697 mmHg 42%
    13:00 +26°C° 0 mm 1 m/S 696 mmHg 39%
    14:00 +27°C° 0 mm 1 m/S 696 mmHg 36%
    15:00 +26°C° 0 mm 1 m/S 696 mmHg 38%
    16:00 +25°C° 0 mm 1 m/S 696 mmHg 41%
    17:00 +24°C° 0 mm 1 m/S 696 mmHg 44%
    18:00 +23°C° 0 mm 1 m/S 696 mmHg 47%
    19:00 +22°C° 0 mm 1 m/S 696 mmHg 50%
    20:00 +21°C° 0 mm 1 m/S 696 mmHg 53%
    21:00 +21°C° 0.1 mm 1 m/S 696 mmHg 55%
    22:00 +20°C° 0.1 mm 1 m/S 696 mmHg 57%
    23:00 +18°C° 0.1 mm 0 m/S 696 mmHg 59%

    19 Oktober, Freitag

    Zeit Temperatur Niederschläge Wind Luftdruck Luftfeuchtigkeit
    00:00 +17°C° 0 mm 0 m/S 696 mmHg 60%
    01:00 +17°C° 0 mm 0 m/S 696 mmHg 62%
    02:00 +17°C° 0 mm 0 m/S 696 mmHg 63%
    03:00 +16°C° 0 mm 0 m/S 696 mmHg 64%
    04:00 +16°C° 0 mm 0 m/S 696 mmHg 65%
    05:00 +16°C° 0 mm 0 m/S 696 mmHg 67%
    06:00 +17°C° 0 mm 0 m/S 697 mmHg 62%
    07:00 +18°C° 0 mm 0 m/S 697 mmHg 56%
    08:00 +19°C° 0 mm 0 m/S 697 mmHg 51%
    09:00 +21°C° 0 mm 0 m/S 697 mmHg 47%
    10:00 +22°C° 0 mm 0 m/S 697 mmHg 43%
    11:00 +23°C° 0 mm 0 m/S 697 mmHg 39%
    12:00 +26°C° 0 mm 1 m/S 697 mmHg 37%
    13:00 +26°C° 0 mm 1 m/S 697 mmHg 35%
    14:00 +27°C° 0 mm 1 m/S 697 mmHg 33%
    15:00 +26°C° 0.2 mm 1 m/S 697 mmHg 36%
    16:00 +25°C° 0.2 mm 1 m/S 696 mmHg 38%
    17:00 +24°C° 0.2 mm 1 m/S 696 mmHg 41%
    18:00 +23°C° 0.2 mm 1 m/S 697 mmHg 45%
    19:00 +22°C° 0.2 mm 1 m/S 697 mmHg 48%
    20:00 +21°C° 0.2 mm 1 m/S 697 mmHg 51%
    21:00 +21°C° 0.1 mm 1 m/S 697 mmHg 54%
    22:00 +20°C° 0.1 mm 1 m/S 697 mmHg 57%
    23:00 +19°C° 0.1 mm 1 m/S 697 mmHg 60%

    20 Oktober, Samstag

    Zeit Temperatur Niederschläge Wind Luftdruck Luftfeuchtigkeit
    00:00 +19°C° 0.1 mm 1 m/S 697 mmHg 62%
    01:00 +19°C° 0.1 mm 1 m/S 696 mmHg 64%
    02:00 +18°C° 0.1 mm 1 m/S 696 mmHg 67%
    03:00 +18°C° 0 mm 1 m/S 696 mmHg 69%
    04:00 +16°C° 0 mm 1 m/S 696 mmHg 71%
    05:00 +16°C° 0 mm 1 m/S 696 mmHg 73%
    06:00 +18°C° 0 mm 1 m/S 697 mmHg 69%
    07:00 +19°C° 0 mm 1 m/S 697 mmHg 64%
    08:00 +20°C° 0 mm 1 m/S 697 mmHg 60%
    09:00 +22°C° 0 mm 1 m/S 697 mmHg 54%
    10:00 +23°C° 0 mm 1 m/S 697 mmHg 48%
    11:00 +22°C° 0 mm 0 m/S 697 mmHg 42%
    12:00 +25°C° 0 mm 1 m/S 697 mmHg 39%
    13:00 +25°C° 0 mm 1 m/S 697 mmHg 36%
    14:00 +26°C° 0 mm 1 m/S 697 mmHg 33%
    15:00 +25°C° 0.1 mm 1 m/S 696 mmHg 36%
    16:00 +24°C° 0.1 mm 1 m/S 696 mmHg 39%
    17:00 +23°C° 0.1 mm 1 m/S 696 mmHg 42%
    18:00 +22°C° 0.2 mm 1 m/S 696 mmHg 46%
    19:00 +20°C° 0.2 mm 2 m/S 696 mmHg 51%
    20:00 +19°C° 0.2 mm 2 m/S 696 mmHg 55%
    21:00 +20°C° 0.1 mm 1 m/S 696 mmHg 60%
    22:00 +19°C° 0.1 mm 1 m/S 696 mmHg 64%
    23:00 +18°C° 0.1 mm 1 m/S 696 mmHg 68%

    21 Oktober, Sonntag

    Zeit Temperatur Niederschläge Wind Luftdruck Luftfeuchtigkeit
    00:00 +18°C° 0.3 mm 1 m/S 696 mmHg 71%
    01:00 +16°C° 0.3 mm 1 m/S 696 mmHg 74%
    02:00 +16°C° 0.3 mm 1 m/S 695 mmHg 77%
    03:00 +15°C° 0.2 mm 1 m/S 695 mmHg 80%
    04:00 +15°C° 0.2 mm 1 m/S 695 mmHg 83%
    05:00 +15°C° 0.2 mm 1 m/S 695 mmHg 85%
    06:00 +15°C° 0.4 mm 2 m/S 696 mmHg 82%
    07:00 +16°C° 0.4 mm 2 m/S 696 mmHg 79%
    08:00 +16°C° 0.4 mm 2 m/S 696 mmHg 76%
    09:00 +17°C° 0.5 mm 2 m/S 696 mmHg 70%
    10:00 +18°C° 0.5 mm 2 m/S 696 mmHg 65%
    11:00 +19°C° 0.5 mm 3 m/S 696 mmHg 60%
    12:00 +20°C° 0.7 mm 3 m/S 696 mmHg 56%
    13:00 +20°C° 0.7 mm 3 m/S 696 mmHg 53%
    14:00 +21°C° 0.7 mm 3 m/S 695 mmHg 50%
    15:00 +20°C° 0.3 mm 3 m/S 696 mmHg 52%
    16:00 +19°C° 0.3 mm 3 m/S 696 mmHg 55%
    17:00 +18°C° 0.3 mm 3 m/S 696 mmHg 58%
    18:00 +17°C° 0 mm 3 m/S 696 mmHg 62%
    19:00 +17°C° 0 mm 3 m/S 696 mmHg 66%
    20:00 +16°C° 0 mm 3 m/S 697 mmHg 71%
    21:00 +14°C° 0 mm 3 m/S 697 mmHg 73%
    22:00 +14°C° 0 mm 2 m/S 697 mmHg 76%
    23:00 +14°C° 0 mm 2 m/S 697 mmHg 79%
    Mehr zeigen